Change the Weather History Date:

Saturday, April 20, 2013

  Actual Average Record
Temperature  
Mean Temperature 45 °F 45 °F  
Max Temperature 58 °F 58 °F 81 °F (1989)
Min Temperature 31 °F 32 °F 1 °F (1966)
Degree Days  
Heating Degree Days 20 20  
Month to date heating degree days 582 452  
Since 1 July heating degree days 6842 7071  
Cooling Degree Days 0 0  
Month to date cooling degree days 0 0  
Year to date cooling degree days 0 0  
Moisture  
Dew Point 26 °F    
Average Humidity 51    
Maximum Humidity 75    
Minimum Humidity 26    
Precipitation  
Precipitation 0.00 in 0.06 in 1.05 in (1933)
Month to date precipitation 2.43 1.16  
Year to date precipitation 4.83 3.31  
Snow  
Snow 0.00 in 0.50 in - ()
Month to date snowfall 34.1 11.6  
Since 1 July snowfall 91.4 81.3  
Snow Depth 0.00 in    
Sea Level Pressure  
Sea Level Pressure 29.85 in    
Wind  
Wind Speed 6 mph (WNW)    
Max Wind Speed 28 mph    
Max Gust Speed 36 mph    
Visibility 10 miles    
Events      
T = Trace of Precipitation, MM = Missing Value Source: NWS Daily Summary

Daily Weather History Graph

Daily Weather History Graph

Search for Another Location

Airport or City:

Trip Planner

Search our weather history database for the weather conditions in past years. The results will help you decide how hot, cold, wet, or windy it might be!

Date:

Astronomy

Apr. 20, 2013 Rise Set
Actual Time 6:24 AM MDT 8:03 PM MDT
Civil Twilight 5:55 AM MDT 8:33 PM MDT
Nautical Twilight 5:18 AM MDT 9:09 PM MDT
Astronomical Twilight 4:40 AM MDT 9:48 PM MDT
Moon 2:43 PM MDT (4/20) 3:23 AM MDT (4/20)
Length of Visible Light 14h 38m
Length of Day
13h 38m
Waxing Gibbous, 71% of the Moon is Illuminated
Apr 20
Waxing Gibbous
Apr 25
Full
May 2
Last Quarter
May 9
New
May 17
First Quarter

Hourly Weather History & Observations

Time (MDT) Temp. Windchill Dew Point Humidity Pressure Visibility Wind Dir Wind Speed Gust Speed Precip Events Conditions
12:53 AM 39.9 °F - 26.1 °F 58% 29.81 in 10.0 mi Calm Calm - N/A   Clear
1:53 AM 37.0 °F 34.5 °F 28.0 °F 70% 29.82 in 10.0 mi ENE 3.5 mph - N/A   Clear
2:53 AM 37.0 °F 33.3 °F 26.1 °F 65% 29.79 in 10.0 mi WSW 4.6 mph - N/A   Clear
3:53 AM 34.0 °F - 27.0 °F 75% 29.81 in 10.0 mi Calm Calm - N/A   Partly Cloudy
4:53 AM 33.1 °F 27.7 °F 25.0 °F 72% 29.82 in 10.0 mi NW 5.8 mph - N/A   Scattered Clouds
5:53 AM 36.0 °F 31.1 °F 24.1 °F 62% 29.83 in 10.0 mi WSW 5.8 mph - N/A   Partly Cloudy
6:53 AM 33.1 °F - 26.1 °F 75% 29.86 in 10.0 mi Calm Calm - N/A   Clear
7:53 AM 36.0 °F - 27.0 °F 70% 29.88 in 10.0 mi Calm Calm - N/A   Clear
8:53 AM 43.0 °F - 27.0 °F 53% 29.88 in 10.0 mi Calm Calm - N/A   Clear
9:53 AM 46.0 °F - 28.9 °F 51% 29.86 in 10.0 mi Calm Calm - N/A   Clear
10:53 AM 48.9 °F - 27.0 °F 43% 29.86 in 10.0 mi Variable 4.6 mph - N/A   Clear
11:53 AM 52.0 °F - 26.1 °F 37% 29.85 in 10.0 mi Calm Calm - N/A   Clear
12:53 PM 52.0 °F - 26.1 °F 37% 29.84 in 10.0 mi SW 5.8 mph - N/A   Clear
1:53 PM 55.9 °F - 28.9 °F 36% 29.81 in 10.0 mi Variable 3.5 mph - N/A   Clear
2:53 PM 54.0 °F - 25.0 °F 33% 29.81 in 10.0 mi WNW 4.6 mph - N/A   Mostly Cloudy
3:53 PM 55.0 °F - 21.9 °F 28% 29.81 in 10.0 mi NW 15.0 mph 23.0 mph N/A   Partly Cloudy
4:53 PM 55.9 °F - 23.0 °F 28% 29.80 in 10.0 mi NNW 12.7 mph 26.5 mph N/A   Clear
5:53 PM 54.0 °F - 23.0 °F 30% 29.80 in 10.0 mi NNW 20.7 mph 24.2 mph N/A   Clear
6:53 PM 52.0 °F - 23.0 °F 32% 29.84 in 10.0 mi NNW 9.2 mph - N/A   Clear
7:53 PM 48.0 °F - 27.0 °F 44% 29.88 in 10.0 mi NW 13.8 mph - N/A   Scattered Clouds
8:53 PM 45.0 °F 40.1 °F 21.0 °F 39% 29.89 in 10.0 mi WNW 9.2 mph - N/A   Clear
9:53 PM 43.0 °F 37.7 °F 26.1 °F 51% 29.92 in 10.0 mi NW 9.2 mph - N/A   Clear
10:53 PM 41.0 °F - 25.0 °F 53% 29.94 in 10.0 mi Calm Calm - N/A   Scattered Clouds
11:53 PM 39.0 °F 35.7 °F 27.0 °F 62% 29.94 in 10.0 mi South 4.6 mph - N/A   Overcast